(431737) = 2008 FV106

Discovered at Kitt Peak on 2008-03-31 by Spacewatch.

Orbit

Orbit type: Main Belt

Note: WebGL enabled browser required.

epoch2023-09-13.0
epoch JD2460200.5
perihelion date2023-05-18.85200
perihelion JD2460083.35200
argument of perihelion (°)156.46003
ascending node (°)159.06356
inclination (°)3.32775
eccentricity0.0835960
perihelion distance (AU)2.1194744
Tisserand w.r.t. Jupiter3.6
ΔV w.r.t. Earth (km/sec)9.1
semimajor axis (AU)2.3128167
mean anomaly (°)32.82668
mean daily motion (°/day)0.28021540
aphelion distance (AU)2.506
period (years)3.52
P-vector [x]0.71377963
P-vector [y]-0.65144698
P-vector [z]-0.25716817
Q-vector [x]0.70006314
Q-vector [y]0.67450305
Q-vector [z]0.23442960
absolute magnitude18.18
phase slope0.15
uncertainty0
referenceMPO 779987
observations used170
oppositions13
arc length (days)8240
first opposition used2001
last opposition used2023
residual rms (arc-secs)0.81
perturbers coarse indicatorM-v
perturbers precise indicator003Ek
first observation date used2001-04-14.0
last observation date used2023-11-05.0
computer nameMPCLINUX
Minimum Orbit Intersection Distances (in AU)
for orbit epoch: 2460200.5, reference: E2023-V65
Mercury1.68982
Venus1.39428
Earth1.10573
Mars0.7248
Jupiter2.67503
Saturn6.59603
Uranus15.9626
Neptune27.5464

Observations

174 total observations over interval: 2001 04 14.24044 – 2023 11 05.308032
These data are available for download (format description).

Date (UT) J2000 RA J2000 Dec Magn Location Ref
2001 04 14.24044 13 40 18.83 -05 59 04.1 21.6 V 691 – Steward Observatory, Kitt Peak-Spacewatch MPS 252688
2001 04 14.26142 13 40 17.60 -05 58 55.5 22.1 V 691 – Steward Observatory, Kitt Peak-Spacewatch MPS 252688
2001 04 14.28217 13 40 16.41 -05 58 47.0 22.3 V 691 – Steward Observatory, Kitt Peak-Spacewatch MPS 252688
2001 05 24.224110 13 12 05.479 -02 59 46.87 21.80 V 645 – Apache Point-Sloan Digital Sky Survey MPS 252688
2001 05 24.227582 13 12 05.425 -02 59 46.63 22.93   645 – Apache Point-Sloan Digital Sky Survey MPS 252688
2002 10 30.232720 00 39 23.917 +00 06 18.25 21.27 V 645 – Apache Point-Sloan Digital Sky Survey MPS 252688
2002 10 30.236192 00 39 23.787 +00 06 17.50 22.23   645 – Apache Point-Sloan Digital Sky Survey MPS 252688
2002 11 08.233340 00 35 16.417 -00 20 47.75 21.55 V 645 – Apache Point-Sloan Digital Sky Survey MPS 252688
2002 11 08.236812 00 35 16.347 -00 20 48.22 22.37   645 – Apache Point-Sloan Digital Sky Survey MPS 252688
2008 03 28.31962 13 33 37.76 -06 03 11.8 21.5 V G96 – Mt. Lemmon Survey MPS 252532
2008 03 28.32630 13 33 37.40 -06 03 09.1 21.4 V G96 – Mt. Lemmon Survey MPS 252532
2008 03 28.33295 13 33 37.04 -06 03 06.6 21.7 V G96 – Mt. Lemmon Survey MPS 252532
2008 03 28.33962 13 33 36.75 -06 03 04.1 21.1 V G96 – Mt. Lemmon Survey MPS 252532
2008 03 31.23587 13 31 14.20 -05 43 34.6 21.0 V 691 – Steward Observatory, Kitt Peak-Spacewatch MPS 245880
2008 03 31.25344 13 31 13.19 -05 43 27.4 21.1 V 691 – Steward Observatory, Kitt Peak-Spacewatch MPS 245880
2008 03 31.27103 13 31 12.28 -05 43 20.6 21.1 V 691 – Steward Observatory, Kitt Peak-Spacewatch MPS 245880
2008 04 05.33133 13 26 45.81 -05 08 12.5 21.4 V G96 – Mt. Lemmon Survey MPS 245880
2008 04 05.33793 13 26 45.38 -05 08 09.7 21.0 V G96 – Mt. Lemmon Survey MPS 245880
2008 04 05.34460 13 26 45.13 -05 08 06.6 20.5 V G96 – Mt. Lemmon Survey MPS 245880
2008 04 05.35124 13 26 44.66 -05 08 04.0 21.0 V G96 – Mt. Lemmon Survey MPS 245880
2008 04 11.34463 13 21 12.96 -04 26 00.3 20.5 V G96 – Mt. Lemmon Survey MPS 252688
2008 04 11.34979 13 21 12.70 -04 25 58.1 20.7 V G96 – Mt. Lemmon Survey MPS 252688
2008 04 11.35499 13 21 12.38 -04 25 56.0 20.9 V G96 – Mt. Lemmon Survey MPS 252688
2008 04 11.36010 13 21 12.06 -04 25 53.9 20.9 V G96 – Mt. Lemmon Survey MPS 252688
2008 04 27.14949 13 07 10.48 -02 45 47.0 21.6 V 691 – Steward Observatory, Kitt Peak-Spacewatch MPS 252688
2008 04 27.17053 13 07 09.41 -02 45 39.3 21.1 V 691 – Steward Observatory, Kitt Peak-Spacewatch MPS 252688
2008 04 27.19156 13 07 08.39 -02 45 33.3 21.5 V 691 – Steward Observatory, Kitt Peak-Spacewatch MPS 252688
2009 09 21.32589 00 44 02.43 +01 50 03.5 20.2 V G96 – Mt. Lemmon Survey MPS 295922
2009 09 21.33306 00 44 02.07 +01 50 00.5 20.0 V G96 – Mt. Lemmon Survey MPS 295922
2009 09 21.34014 00 44 01.68 +01 49 57.1 20.3 V G96 – Mt. Lemmon Survey MPS 295922
2009 09 21.34726 00 44 01.32 +01 49 53.9 20.1 V G96 – Mt. Lemmon Survey MPS 295922
2011 02 07.30030 09 23 05.02 +13 18 16.0 21.1 V G96 – Mt. Lemmon Survey MPS 369583
2011 02 07.30731 09 23 04.56 +13 18 18.2 21.2 V G96 – Mt. Lemmon Survey MPS 369583
2011 02 07.31432 09 23 04.12 +13 18 20.8 21.0 V G96 – Mt. Lemmon Survey MPS 369583
2011 02 07.32138 09 23 03.66 +13 18 24.3 21.0 V G96 – Mt. Lemmon Survey MPS 369583
2013 11 27.36846 05 24 15.985 +17 39 02.12 21.2 w F51 – Pan-STARRS 1, Haleakala MPS 488460
2013 11 27.38369 05 24 15.021 +17 39 00.95 21.1 w F51 – Pan-STARRS 1, Haleakala MPS 488460
2013 11 27.39894 05 24 14.068 +17 38 59.77 21.3 w F51 – Pan-STARRS 1, Haleakala MPS 488460
2013 11 27.41429 05 24 13.102 +17 38 58.41 21.2 w F51 – Pan-STARRS 1, Haleakala MPS 488460
2015 03 17.40915 13 21 24.36 -05 28 15.6 21.6 V G96 – Mt. Lemmon Survey MPS 587143
2015 03 17.41426 13 21 24.17 -05 28 14.6 21.5 V G96 – Mt. Lemmon Survey MPS 587143
2015 03 17.41936 13 21 23.93 -05 28 13.1 21.7 V G96 – Mt. Lemmon Survey MPS 587143
2015 03 17.42447 13 21 23.74 -05 28 11.5 22.7 V G96 – Mt. Lemmon Survey MPS 587143
2015 03 22.44976 13 17 50.275 -04 56 25.83 21.3 w F51 – Pan-STARRS 1, Haleakala MPS 592390
2015 03 22.47304 13 17 49.153 -04 56 16.88 21.3 w F51 – Pan-STARRS 1, Haleakala MPS 592390
2015 03 22.48467 13 17 48.606 -04 56 12.09 21.5 w F51 – Pan-STARRS 1, Haleakala MPS 592390
2015 04 11.27734 13 00 25.26 -02 36 38.5 20.9 V G96 – Mt. Lemmon Survey MPS 600666
2015 04 11.28242 13 00 25.01 -02 36 36.3 20.5 V G96 – Mt. Lemmon Survey MPS 600666
2015 04 11.28750 13 00 24.64 -02 36 34.3 21.5 V G96 – Mt. Lemmon Survey MPS 600666
2015 04 11.29259 13 00 24.35 -02 36 32.2 21.4 V G96 – Mt. Lemmon Survey MPS 600666
2015 04 15.38851 12 56 40.297 -02 08 34.15 21.1 w F51 – Pan-STARRS 1, Haleakala MPS 600666
2015 04 15.40681 12 56 39.261 -02 08 26.61 20.8 w F51 – Pan-STARRS 1, Haleakala MPS 600666
2015 04 15.41744 12 56 38.654 -02 08 22.52 21.2 w F51 – Pan-STARRS 1, Haleakala MPS 600666
2015 04 15.42806 12 56 38.075 -02 08 17.89 21.1 w F51 – Pan-STARRS 1, Haleakala MPS 600666
2016 08 28.37429 00 32 03.45 +01 54 03.1 21.3 V G96 – Mt. Lemmon Survey MPS 727587
2016 08 28.38200 00 32 03.16 +01 54 01.2 21.3 V G96 – Mt. Lemmon Survey MPS 727587
2016 08 28.38992 00 32 02.90 +01 53 58.7 21.1 V G96 – Mt. Lemmon Survey MPS 727587
2016 08 28.39774 00 32 02.69 +01 53 56.7 22.2 V G96 – Mt. Lemmon Survey MPS 727587
2016 08 30.38061 00 31 07.85 +01 43 05.6 20.7 V G96 – Mt. Lemmon Survey MPS 727587
2016 08 30.38794 00 31 07.64 +01 43 03.4 20.9 V G96 – Mt. Lemmon Survey MPS 727587
2016 08 30.39523 00 31 07.40 +01 43 00.5 20.7 V G96 – Mt. Lemmon Survey MPS 727587
2016 08 30.40252 00 31 07.18 +01 42 58.2 20.5 V G96 – Mt. Lemmon Survey MPS 727587
2016 09 11.34293 00 23 31.54 +00 24 27.3 20.5 V G96 – Mt. Lemmon Survey MPS 729905
2016 09 11.36286 00 23 30.63 +00 24 18.3 21.7 V G96 – Mt. Lemmon Survey MPS 729905
2016 09 11.36885 00 23 30.34 +00 24 15.4 20.4 V G96 – Mt. Lemmon Survey MPS 729905
2016 09 11.37314 00 23 30.12 +00 24 13.7 20.4 V G96 – Mt. Lemmon Survey MPS 729905
2016 09 25.42811 00 11 39.76 -01 23 33.6 20.3 V G96 – Mt. Lemmon Survey MPS 732252
2016 09 25.43366 00 11 39.44 -01 23 36.3 20.4 V G96 – Mt. Lemmon Survey MPS 732252
2016 09 25.43925 00 11 39.13 -01 23 38.0 20.6 V G96 – Mt. Lemmon Survey MPS 732252
2016 09 25.44490 00 11 38.83 -01 23 41.7 20.3 V G96 – Mt. Lemmon Survey MPS 732252
2016 09 26.39316 00 10 49.144 -01 30 55.71 20.6 w F51 – Pan-STARRS 1, Haleakala MPS 732252
2016 09 26.40205 00 10 48.652 -01 30 59.78 20.6 w F51 – Pan-STARRS 1, Haleakala MPS 732252
2016 09 26.40400 00 10 48.542 -01 31 00.70 20.4 w F51 – Pan-STARRS 1, Haleakala MPS 732252
2016 09 26.41283 00 10 48.051 -01 31 04.79 20.5 w F51 – Pan-STARRS 1, Haleakala MPS 732252
2016 09 26.41479 00 10 47.940 -01 31 05.59 20.4 w F51 – Pan-STARRS 1, Haleakala MPS 732252
2016 09 26.42363 00 10 47.445 -01 31 09.52 20.5 w F51 – Pan-STARRS 1, Haleakala MPS 732252
2016 09 26.42557 00 10 47.334 -01 31 10.63 20.6 w F51 – Pan-STARRS 1, Haleakala MPS 732252
2016 10 02.24100 00 05 45.12 -02 14 08.5 20.6 V 807 – Cerro Tololo Observatory, La Serena MPS 739676
2016 10 02.24753 00 05 44.78 -02 14 11.3 20.8 V 807 – Cerro Tololo Observatory, La Serena MPS 739676
2016 10 02.25406 00 05 44.42 -02 14 14.1 20.4 V 807 – Cerro Tololo Observatory, La Serena MPS 739676
2016 10 02.26056 00 05 44.09 -02 14 16.8 20.6 V 807 – Cerro Tololo Observatory, La Serena MPS 739676
2016 10 02.26706 00 05 43.75 -02 14 19.4 20.7 V 807 – Cerro Tololo Observatory, La Serena MPS 739676
2016 10 21.13819 23 52 55.17 -03 59 51.0 20.7 V G96 – Mt. Lemmon Survey MPS 739676
2016 10 21.14492 23 52 54.95 -03 59 51.7 20.2 V G96 – Mt. Lemmon Survey MPS 739676
2016 10 21.15057 23 52 54.86 -03 59 53.4 21.2 V G96 – Mt. Lemmon Survey MPS 739676
2016 10 21.15488 23 52 54.63 -03 59 53.2 20.7 V G96 – Mt. Lemmon Survey MPS 739676
2018 02 12.34665 08 58 17.203 +15 00 46.39 21.5 w F51 – Pan-STARRS 1, Haleakala MPS 869971
2018 02 12.35987 08 58 16.396 +15 00 51.14 21.3 w F51 – Pan-STARRS 1, Haleakala MPS 869971
2018 02 12.37315 08 58 15.575 +15 00 55.62 21.6 w F51 – Pan-STARRS 1, Haleakala MPS 869971
2018 02 12.38655 08 58 14.747 +15 01 00.29 21.5 w F51 – Pan-STARRS 1, Haleakala MPS 869971
2018 02 12.47042 08 58 09.599 +15 01 28.45 21.5 w F51 – Pan-STARRS 1, Haleakala MPS 869971
2018 02 12.48220 08 58 08.888 +15 01 32.44 22.0 w F51 – Pan-STARRS 1, Haleakala MPS 869971
2018 02 12.49399 08 58 08.161 +15 01 36.28 21.5 w F51 – Pan-STARRS 1, Haleakala MPS 869971
2019 06 03.355291 18 10 28.71 -17 34 22.8 20.35 r I41 – Palomar Mountain--ZTF MPS 1011885
